Regional Weather Roundup
Issued by NWS

Home | Current Version | Previous Version | Text Only | Print | Product List | Glossary Off
Versions: 1 2 3 4 5 6 7 8 9 10 11 12 13 14 15 16 17 18 19 20 21 22 23 24 25 26 27 28 29 30 31 32 33 34 35 36 37 38 39 40 41 42 43 44 45 46 47 48 49 50

000
ASUS43 KLMK 141102
RWRKY
KENTUCKY REGIONAL WEATHER ROUNDUP
NATIONAL WEATHER SERVICE LOUISVILLE KY
600 AM EST THU DEC 14 2017

NOTE "FAIR" INDICATES FEW OR NO CLOUDS BELOW 12,000 FEET
WITH NO SIGNIFICANT WEATHER AND/OR OBSTRUCTIONS TO VISIBILITY.

KYZ001>023-026-027-061>063-070>075-141200-
WESTERN AND SOUTH CENTRAL KENTUCKY

CITY           SKY/WX    TMP DP  RH WIND       PRES   REMARKS
PADUCAH        CLOUDY    37  25  61 NE9       29.92R WCI  30
HENDERSON      CLOUDY    34  23  64 N9        29.94R WCI  27
OWENSBORO      CLOUDY    35  24  64 N16       29.92R WCI  25
HOPKINSVILLE   CLOUDY    36  25  63 N7        29.91R WCI  31
BOWLING GREEN  CLOUDY    38  28  67 VRB7      29.90R WCI  33
GLASGOW        NOT AVBL
$$

KYZ024-025-028>034-038-045-046-053-141200-
NORTH CENTRAL KENTUCKY

CITY           SKY/WX    TMP DP  RH WIND       PRES   REMARKS
LOUISVILLE/SDF CLOUDY    34  23  64 NW12      29.90R WCI  25
LOUISVILLE/LOU CLOUDY    33  21  61 N10       29.91R WCI  25
FORT KNOX      CLOUDY    34  22  62 NW14G21   29.86S WCI  25
$$

KYZ035>037-039>044-047>052-055>060-089>105-141200-
NORTHEAST KENTUCKY

CITY           SKY/WX    TMP DP  RH WIND       PRES   REMARKS
LEXINGTON      CLOUDY    34  22  61 NW13G23   29.85R WCI  25
COVINGTON      CLOUDY    31  22  69 N13       29.84R WCI  21
FRANKFORT      CLOUDY    33  20  58 NW9       29.86R WCI  25
$$

KYZ054-064>069-076>088-106>120-141200-
SOUTHEAST KENTUCKY

CITY           SKY/WX    TMP DP  RH WIND       PRES   REMARKS
JACKSON        CLOUDY    37  26  64 W7G23     29.80R WCI  32
LONDON         CLOUDY    37  25  61 NW7       29.83R WCI  32
SOMERSET       NOT AVBL
MIDDLESBORO    CLOUDY    40  29  65 NW10      29.82R WCI  34
MONTICELLO     CLOUDY    36  29  75 NW6       29.88R WCI  31
$$





USA.gov is the U.S. government's official web portal to all federal, state and local government web resources and services.